Overview Statistics Trail Chart Weather Telemetry Raw packets
 

This is the latest recevied weather packets stored in our database for station/object KI6SYE. If no packets are shown the sender has not sent any weather packets the latest 10 day(s).

<< 75 76 77 78 79 80 81 >>
Time Temp. Humidity Pressure Rain* Wind** Luminosity Snow
1788139814 22.78° C 79% 1010.5 hPa 0 mm - 40 W/m² -
1788139509 22.78° C 80% 1010.5 hPa 0 mm - 51 W/m² -
1788139209 23.33° C 80% 1010.7 hPa 0 mm - 32 W/m² -
1788138903 23.33° C 80% 1010.5 hPa 0 mm - 73 W/m² -
1788138599 23.33° C 81% 1010.5 hPa 0 mm - 51 W/m² -
1788138299 23.33° C 81% 1010.5 hPa 0 mm - 47 W/m² -
1788137995 23.89° C 80% 1010.6 hPa 0 mm - 66 W/m² -
1788137704 23.89° C 80% 1010.6 hPa 0 mm - 103 W/m² -
1788137390 23.89° C 80% 1010.4 hPa 0 mm - 124 W/m² -
1788137086 24.44° C 81% 1010.4 hPa 0 mm - 138 W/m² -
1788136781 23.89° C 81% 1010.5 hPa 0 mm - 148 W/m² -
1788136477 24.44° C 80% 1010.6 hPa 0 mm - 162 W/m² -
1788136177 23.89° C 81% 1010.6 hPa 0 mm - 175 W/m² -
1788135876 23.89° C 82% 1010.3 hPa 0 mm - 190 W/m² -
1788135572 24.44° C 80% 1010.5 hPa 0 mm - 204 W/m² -
1788135267 24.44° C 80% 1010.5 hPa 0 mm - 219 W/m² -
1788134964 24.44° C 80% 1010.4 hPa 0 mm - 232 W/m² -
1788134660 24.44° C 82% 1010.2 hPa 0 mm - 249 W/m² -
1788134357 24.44° C 81% 1010.3 hPa 0 mm - 263 W/m² -
1788134053 24.44° C 82% 1010.3 hPa 0 mm - 281 W/m² -
1788133748 25° C 81% 1010.5 hPa 0 mm - 297 W/m² -
1788133443 25° C 81% 1010.1 hPa 0 mm - 313 W/m² -
1788133139 25° C 82% 1010.5 hPa 0 mm - 324 W/m² -
1788132834 25° C 82% 1010.6 hPa 0 mm - 342 W/m² -
1788132530 25° C 82% 1010.5 hPa 0 mm - 356 W/m² -

* Rain latest hour (hover to see other rain measurements)
** Current wind speed in m/s (hover to see current wind gust speed)